Flag for U.S.A. Weather past 2 weeks in Berkeley, California, U.S.A.

Now
62 °F

Low clouds.


Feels Like: 62 °F
Forecast: 60 / 72 °F
Wind: 8 mph from Northwest

Location: Metro Oakland International Airport

Current Time: Jul 5, 2015 at 1:31:01 AM

Latest Report: Jul 5, 2015 at 12:53 AM


Visibility: 10 mi

Pressure: 29.89 "Hg

Humidity: 83%

Dew point: 57 °F

Location of BerkeleyLocation

Historic Weather in Berkeley — Graph

°F

Berkeley temperature yesterday

Maximum temperature yesterday: 70 °F (at 11:53 AM)
Minimum temperature yesterday: 60 °F (at 3:53 AM)
Average temperature yesterday: 64 °F

Past Weeks' High & Low Weather Summary

 TemperatureHumidityPressure
High81 °F (Jun 30, 2:53 PM)90% (Jun 20, 6:53 AM)30.07 "Hg (Jun 20, 6:53 AM)
Low53 °F (Jun 20, 4:53 AM)39% (Jun 30, 2:53 PM)29.80 "Hg (Jun 30, 5:53 PM)
Average63 °F73%29.94 "Hg
* Reported Jun 19 11:53 PM — Jul 4 11:53 PM, Berkeley, Weather by CustomWeather, © 2015

Note: Actual official high and low records may vary slightly from our data, if they occured in-between our weather recording intervals... More about our weather records

Advertising

Berkeley weather history for previous 24 hours

 ConditionsComfort  
Time TempWeatherWind HumidityBarometerVisibility
11:53 PM
Sat, Jul 4
62 °FPassing clouds.6 mph83%29.89 "Hg10 mi
10:53 PM62 °FLow clouds.10 mph86%29.89 "Hg10 mi
9:53 PM61 °FLow clouds.15 mph87%29.88 "Hg10 mi
8:53 PM61 °FPartly sunny.13 mph87%29.86 "Hg10 mi
7:53 PM62 °FPartly sunny.17 mph80%29.85 "Hg10 mi
6:53 PM65 °FScattered clouds.18 mph76%29.84 "Hg10 mi
5:53 PM66 °FScattered clouds.16 mph73%29.84 "Hg10 mi
4:53 PM68 °FScattered clouds.17 mph70%29.85 "Hg10 mi
3:53 PM69 °FScattered clouds.18 mph66%29.85 "Hg10 mi
2:53 PM69 °FPassing clouds.20 mph66%29.85 "Hg10 mi
1:53 PM69 °FPassing clouds.15 mph66%29.86 "Hg10 mi
12:53 PM70 °FPassing clouds.16 mph64%29.87 "Hg10 mi
11:53 AM70 °FPassing clouds.13 mph66%29.87 "Hg10 mi
10:53 AM68 °FPassing clouds.6 mph70%29.87 "Hg10 mi
9:53 AM65 °FPartly sunny.No wind76%29.88 "Hg10 mi
8:53 AM63 °FLow clouds.3 mph81%29.88 "Hg10 mi
7:53 AM62 °FLow clouds.6 mph83%29.88 "Hg10 mi
6:53 AM61 °FLow clouds.6 mph83%29.88 "Hg10 mi
5:53 AM60 °FLow clouds.6 mph86%29.88 "Hg10 mi
4:53 AM60 °FLow clouds.7 mph86%29.88 "Hg10 mi
3:53 AM60 °FLow clouds.8 mph86%29.89 "Hg10 mi
2:53 AM61 °FLow clouds.9 mph87%29.88 "Hg10 mi
1:53 AM61 °FLow clouds.8 mph87%29.88 "Hg10 mi
Weather by CustomWeather, © 2015

See weather overviewHow to use our weather pages